Regional Weather Roundup
Issued by NWS

Home | Current Version | Previous Version | Graphics & Text | Print | Product List | Glossary On
Versions: 1 2 3 4 5 6 7 8 9 10 11 12 13 14 15 16 17 18 19 20 21 22 23 24 25 26 27 28 29 30 31 32 33 34 35 36 37 38 39 40 41 42 43 44 45 46 47 48 49 50
133
ASUS45 KBOU 180210
RWRCO

WEATHER ROUNDUP FOR COLORADO
NATIONAL WEATHER SERVICE DENVER/BOULDER CO
700 PM MST SUN DEC 17 2017

NOTE: "FAIR" INDICATES FEW OR NO CLOUDS BELOW 12000 FEET WITH NO
SIGNIFICANT WEATHER AND/OR OBSTRUCTIONS TO VISIBILITY.

COZ001>005-013-030-031-180300-
...NORTHWEST COLORADO...

CITY           SKY/WX    TMP DP  RH WIND       PRES   REMARKS
CRAIG          FAIR      14  10  84 W5        30.12R WCI   6
HAYDEN         FAIR      22  18  85 CALM      30.12R
MEEKER         FAIR      24  16  71 CALM      30.10R
RABBIT EARS PA CLOUDY    16  14  93 W13G21    30.02S FOG     WCI   2
STEAMBOAT SPGS CLOUDY    25  18  74 CALM      30.09R
WALDEN         FAIR      14   9  79 SE7       30.05R WCI   4
$$

COZ006>008-011-180300-
...WEST CENTRAL VALLEYS...

CITY           SKY/WX    TMP DP  RH WIND       PRES   REMARKS
GRAND JUNCTION FAIR      28   7  41 N3        30.08R
MONTROSE       FAIR      25   5  42 SE8       30.12R WCI  16
EAGLE          FAIR      23  11  60 E9        30.09R WCI  13
RIFLE          FAIR      26   8  46 E3        30.08R
DELTA          FAIR      32   6  32 N5        30.10R WCI  28
NUCLA          FAIR      30   0  27 E8        30.11R WCI  23
$$

COZ017>023-064>068-180300-
...SOUTHWEST COLORADO...

CITY           SKY/WX    TMP DP  RH WIND       PRES   REMARKS
DURANGO        FAIR      26   4  38 E6        30.04R WCI  19
CORTEZ         FAIR      24   4  42 NE9       30.07R WCI  14
PAGOSA SPRINGS FAIR      25   1  35 CALM      30.07R
TELLURIDE      FAIR      29   0  29 CALM      30.10R
WOLF CREEK PAS FAIR      18   1  49 SW14      30.12R WCI   4
$$

COZ009-010-012-014-032>034-037-058>063-180300-
...CENTRAL COLORADO...

CITY           SKY/WX    TMP DP  RH WIND       PRES   REMARKS
ASPEN          FAIR      21   8  57 S7        30.07R WCI  12
BUENA VISTA    FAIR      33   3  28 N10G18    29.99R WCI  24
COPPER MTN     NOT AVBL
BERTHOUD PASS  FAIR       7  -4  61 NW26G38   30.00R HAZE    WCI -16
COTTONWOOD PAS FAIR      34   3  27 N6G18     29.99R WCI  29
GUNNISON       FAIR      24   4  42 CALM      30.06R
KREMMLING      FAIR      25  19  80 N3        30.09R
LEADVILLE      FAIR      16   0  49 NE8       30.04R WCI   5
MONARCH PASS   FAIR      18   0  45 SW30G37   30.12S WCI  -2
SALIDA         FAIR      36   0  21 SW7       30.05R
SUNLIGHT       FAIR      18   7  62 SW10      30.11R WCI   6
WILKERSON PASS MOCLDY    23  -4  30 W9G21     30.01R WCI  13
$$

COZ069>075-180300-
...SAN LUIS VALLEY/SANGRE DE CRISTO MOUNTAINS...

CITY           SKY/WX    TMP DP  RH WIND       PRES   REMARKS
ALAMOSA        FAIR      22  14  71 CALM      30.00R
DEL NORTE      FAIR      23   6  48 NW8       30.03R WCI  14
LA VETA PASS   FAIR      28   5  37 S23G35      N/A  WCI  14
SAGUACHE       FAIR      28   5  37 N12       30.02R WCI  18
$$

COZ035-036-038>040-180300-
...NORTHERN COLORADO FRONT RANGE...

CITY           SKY/WX    TMP DP  RH WIND       PRES   REMARKS
DENVER INTL AP FAIR      26  19  74 SE6       29.92R WCI  19
DMNS CITY PARK NOT AVBL
AURORA         PTCLDY    26  19  75 S6        29.92R WCI  19
FRONT RANGE AP PTCLDY    27  21  80 SE5       29.93R WCI  21
ERIE MUNI ARPT FAIR      26  22  85 CALM      29.99R
BOULDER MUN AP FAIR      32  27  80 CALM      29.93S
CENTENNIAL     FAIR      28  21  75 SW3       29.91R
BROOMFIELD     PTCLDY    30  25  80 NW6       29.93R WCI  24
FORT COLLINS   FAIR      30  25  81 CALM      29.95R
LONGMONT       FAIR      28  24  83 CALM      29.96S
$$

COZ041-046-047-076>085-087-088-180300-
...PIKES PEAK/PALMER DIVIDE AND SOUTHERN FOOTHILLS...

CITY           SKY/WX    TMP DP  RH WIND       PRES   REMARKS
COLO. SPRINGS  FAIR      21  17  84 NE3       29.97R
A. F. ACADEMY  FAIR      20  16  84 NW5       29.95R WCI  13
SCHRIEVER AFB  FAIR      22  21  94 W3        29.96R
CHEYENNE MTN   FAIR      27  22  80 N8        29.89R WCI  19
ELLICOTT         N/A    N/A N/A N/A W3        29.95R
FALCON         FAIR      22  21  96 SW8       29.95R WCI  12
FORT CARSON    FAIR      23  19  86 CALM      29.95R
LIMON          FAIR      23  20  88 S6        29.95R WCI  16
MONUMENT HILL  FAIR      28  19  69 SW12      29.93S WCI  18
CANON CITY     FAIR      28  23  80 N3        29.96R
WALSENBURG     FAIR      28  21  74 W5        29.95R WCI  23
TRINIDAD       FAIR      31  23  72 S7        29.94S WCI  24
$$

COZ042>045-048>051-090-091-180300-
...NORTHEAST COLORADO...

CITY           SKY/WX    TMP DP  RH WIND       PRES   REMARKS
GREELEY ARPT   FAIR      20  18  92 CALM      29.95S
AKRON          FAIR      28  23  81 SW9       29.94R WCI  19
BURLINGTON     FAIR      24  20  84 SW7       29.98R WCI  16
WRAY           FAIR      28  23  80 W8        29.97R WCI  20
YUMA           FAIR      23  19  86 SW6       29.96R WCI  16
STERLING       FAIR      25  21  86 SW6       29.94S WCI  18
HOLYOKE        FAIR      28  23  80 SW8       29.95R WCI  20
FORT MORGAN    FAIR      30  23  75 CALM      29.95F
$$

COZ086-089-092>099-180300-
...SOUTHEAST COLORADO...

CITY           SKY/WX    TMP DP  RH WIND       PRES   REMARKS
PUEBLO         FAIR      25  19  78 N8        29.96S WCI  16
LA JUNTA       FAIR      32  24  72 SE6       29.97S WCI  26
LAMAR          FAIR      23  18  81 S8        29.98S WCI  14
SPRINGFIELD      N/A     23  20  88 S10       29.99S WCI  12
$$




USA.gov is the U.S. government's official web portal to all federal, state and local government web resources and services.